period_start,C,m1,H,J0,J1,J2,J3,J4,J5,JA,JB,JC,JD,JJ,JK,JN,#
2018-05-18 00:01:44,0.05,0.37,0.00,24.45,28.53,31.31,14.02,45.32,1020.59,2021.37,3271.78,2976.97,3411.10,600.17,595.74,10.40,0000 0000 0000 0000 000000
2018-05-18 00:06:45,0.04,0.38,0.00,24.42,28.47,31.19,13.90,45.18,1020.54,2021.92,3271.26,2976.98,3411.11,600.22,595.65,10.45,0000 0000 0000 0000 000000
2018-05-18 00:11:47,-0.01,0.38,0.00,24.39,28.40,31.05,13.98,45.42,1020.54,2021.99,3271.13,2976.99,3411.40,599.99,595.67,10.50,0000 0000 0000 0000 000000
2018-05-18 00:16:48,-0.01,0.38,0.00,24.39,28.34,31.01,13.95,45.28,1020.54,2022.02,3271.18,2976.99,3411.90,599.94,595.55,10.55,0000 0000 0000 0000 000000
2018-05-18 00:21:49,0.06,0.38,0.00,24.40,28.28,30.95,13.96,45.42,1020.52,2022.59,3271.08,2977.00,3411.97,600.10,595.63,10.61,0000 0000 0000 0000 000000
2018-05-18 00:26:51,0.02,0.38,0.00,24.42,28.22,30.91,13.92,45.31,1020.52,2022.94,3271.02,2977.01,3411.98,600.22,595.70,10.66,0000 0000 0000 0000 000000
2018-05-18 00:31:52,0.00,0.38,0.00,24.43,28.17,30.93,13.82,45.23,1020.52,2022.99,3271.01,2977.03,3411.99,600.00,595.38,10.71,0000 0000 0000 0000 000000
2018-05-18 00:36:53,-0.00,0.38,0.00,24.45,28.11,30.91,13.89,45.32,1020.52,2023.03,3271.02,2977.30,3411.99,599.86,595.34,10.76,0000 0000 0000 0000 000000
2018-05-18 00:41:54,0.06,0.38,0.00,24.43,28.06,30.82,13.89,45.43,1020.51,2023.50,3271.01,2977.50,3411.99,600.05,595.55,10.81,0000 0000 0000 0000 000000
2018-05-18 00:46:55,0.03,0.39,0.00,24.43,28.01,30.74,13.99,45.38,1020.47,2023.92,3270.99,2977.22,3411.99,600.29,595.83,10.86,0000 0000 0000 0000 000000
2018-05-18 00:51:56,0.02,0.39,0.00,24.46,27.97,30.71,14.07,45.42,1020.32,2023.97,3270.50,2977.04,3411.97,600.55,595.99,10.91,0000 0000 0000 0000 000000
2018-05-18 00:56:58,0.00,0.39,0.00,24.50,27.93,30.66,13.84,45.32,1020.17,2023.99,3270.15,2977.05,3411.97,599.86,595.14,10.96,0000 0000 0000 0000 000000
2018-05-18 01:01:58,0.00,0.39,0.00,24.54,27.89,30.67,13.85,45.33,1020.16,2024.01,3270.03,2977.04,3411.96,599.81,594.83,11.01,0000 0000 0000 0000 000000
2018-05-18 01:07:00,0.01,0.39,0.00,24.57,27.85,30.68,13.78,45.31,1020.15,2024.08,3269.97,2977.00,3411.47,599.94,594.87,11.06,0000 0000 0000 0000 000000
2018-05-18 01:12:01,0.07,0.39,0.00,24.60,27.82,30.68,13.84,45.32,1020.13,2024.52,3269.68,2977.00,3411.13,600.00,594.88,11.11,0000 0000 0000 0000 000000
2018-05-18 01:17:02,0.02,0.39,0.00,24.64,27.79,30.66,13.86,45.29,1020.13,2024.93,3269.03,2976.98,3411.01,599.97,594.73,11.16,0000 0000 0000 0000 000000
2018-05-18 01:22:04,0.01,0.39,0.00,24.66,27.76,30.63,13.85,45.31,1020.08,2024.98,3268.87,2976.82,3410.99,600.09,594.84,11.21,0000 0000 0000 0000 000000
2018-05-18 01:27:05,0.04,0.40,0.00,24.67,27.75,30.45,13.83,45.22,1020.06,2024.99,3267.87,2976.10,3410.51,600.07,594.66,11.26,0000 0000 0000 0000 000000
2018-05-18 01:32:06,0.03,0.40,0.00,24.70,27.72,30.43,13.88,45.41,1020.05,2024.99,3266.97,2975.66,3409.87,600.30,594.97,11.31,0000 0000 0000 0000 000000
2018-05-18 01:37:08,0.03,0.40,0.00,24.74,27.71,30.43,13.83,45.35,1020.07,2024.99,3266.10,2975.07,3409.13,599.62,594.25,11.36,0000 0000 0000 0000 000000
2018-05-18 01:42:09,0.01,0.40,0.00,24.77,27.70,30.40,13.78,45.31,1020.05,2025.01,3265.78,2974.96,3408.98,599.86,594.42,11.41,0000 0000 0000 0000 000000
2018-05-18 01:47:10,0.06,0.40,0.00,24.76,27.68,30.41,13.79,45.17,1020.04,2025.02,3264.48,2974.08,3408.07,600.05,594.53,11.46,0000 0000 0000 0000 000000
2018-05-18 01:52:12,0.08,0.41,0.00,24.81,27.67,30.40,13.83,45.31,1020.06,2025.10,3262.75,2973.10,3406.97,599.77,594.12,11.51,0000 0000 0000 0000 000000
2018-05-18 01:57:13,0.05,0.41,0.00,24.84,27.67,30.40,13.82,45.24,1020.05,2025.14,3261.50,2972.36,3406.10,600.10,594.42,11.56,0000 0000 0000 0000 000000
2018-05-18 02:02:14,0.02,0.41,0.00,24.86,27.67,30.41,13.79,45.30,1020.06,2025.14,3260.75,2971.96,3405.54,600.02,594.41,11.61,0000 0000 0000 0000 000000
2018-05-18 02:07:15,0.04,0.41,0.00,24.89,27.67,30.43,13.81,45.17,1020.06,2025.16,3260.01,2971.22,3405.00,600.08,594.22,11.66,0000 0000 0000 0000 000000
2018-05-18 02:12:16,0.03,0.42,0.00,24.95,27.67,30.42,13.82,45.31,1020.05,2025.27,3259.36,2971.00,3404.64,600.10,594.24,11.71,0000 0000 0000 0000 000000
2018-05-18 02:17:18,0.04,0.42,0.00,24.99,27.67,30.45,13.75,45.27,1020.07,2025.34,3258.44,2970.48,3403.98,599.91,593.89,11.76,0000 0000 0000 0000 000000
2018-05-18 02:22:19,0.07,0.42,0.00,25.01,27.67,30.46,13.81,45.36,1020.09,2025.39,3257.19,2969.62,3402.92,599.92,593.99,11.81,0000 0000 0000 0000 000000
2018-05-18 02:27:21,0.08,0.43,0.00,25.03,27.67,30.47,13.78,45.28,1020.10,2025.52,3255.67,2968.61,3401.74,599.88,593.87,11.86,0000 0000 0000 0000 000000
2018-05-18 02:32:22,0.12,0.43,0.00,25.09,27.69,30.47,13.81,45.26,1020.30,2025.56,3253.37,2967.13,3400.06,600.39,594.38,11.91,0000 0000 0000 0000 000000
2018-05-18 02:37:23,0.13,0.44,0.00,25.10,27.70,30.47,13.85,45.36,1020.26,2025.27,3249.89,2964.87,3397.57,600.25,594.12,11.96,0000 0000 0000 0000 000000
2018-05-18 02:42:24,0.15,0.44,0.00,25.13,27.71,30.48,13.75,45.34,1020.12,2025.16,3246.43,2962.59,3394.98,600.02,593.86,12.01,0000 0000 0000 0000 000000
2018-05-18 02:47:25,0.12,0.45,0.00,25.20,27.72,30.51,13.78,45.33,1020.11,2025.10,3243.35,2960.63,3392.77,600.12,593.83,12.06,0000 0000 0000 0000 000000
2018-05-18 02:52:27,0.12,0.46,0.00,25.21,27.75,30.51,13.77,45.20,1020.13,2025.03,3240.57,2958.74,3390.72,600.09,593.76,12.11,0000 0000 0000 0000 000000
2018-05-18 02:57:28,0.08,0.46,0.00,25.23,27.76,30.53,13.87,45.23,1020.21,2025.01,3238.28,2957.15,3389.09,600.27,593.99,12.16,0000 0000 0000 0000 000000
2018-05-18 03:02:30,0.05,0.47,0.00,25.29,27.77,30.56,13.81,45.21,1020.15,2025.00,3237.38,2956.59,3388.21,600.11,593.67,12.21,0000 0000 0000 0000 000000
2018-05-18 03:07:31,0.01,0.47,0.00,25.35,27.80,30.58,13.73,45.27,1020.18,2025.00,3236.88,2956.05,3387.97,600.08,593.51,12.26,0000 0000 0000 0000 000000
2018-05-18 03:12:32,0.05,0.47,0.00,25.39,27.81,30.61,13.82,45.13,1020.24,2025.00,3235.92,2955.65,3387.17,600.07,593.46,12.31,0000 0000 0000 0000 000000
2018-05-18 03:17:34,0.03,0.47,0.00,25.41,27.83,30.62,13.86,45.23,1020.17,2024.99,3235.00,2954.98,3386.23,600.15,593.40,12.36,0000 0000 0000 0000 000000
2018-05-18 03:22:35,0.04,0.47,0.00,25.44,27.86,30.65,13.74,45.13,1020.20,2024.99,3234.13,2954.30,3385.88,599.79,593.15,12.41,0000 0000 0000 0000 000000
2018-05-18 03:27:36,0.03,0.48,0.00,25.50,27.88,30.69,13.70,45.20,1020.26,2024.98,3233.26,2953.82,3384.99,599.98,593.18,12.46,0000 0000 0000 0000 000000
2018-05-18 03:32:38,0.05,0.48,0.00,25.54,27.91,30.70,13.70,45.13,1020.28,2024.88,3231.88,2952.81,3383.92,599.85,592.98,12.51,0000 0000 0000 0000 000000
2018-05-18 03:37:39,0.10,0.48,0.00,25.57,27.93,30.73,13.77,45.17,1020.35,2024.76,3230.14,2951.55,3382.50,599.85,592.91,12.56,0000 0000 0000 0000 000000
2018-05-18 03:42:40,0.07,0.49,0.00,25.60,27.96,30.75,13.77,45.16,1020.25,2024.30,3227.22,2949.54,3380.26,600.02,592.92,12.61,0000 0000 0000 0000 000000
2018-05-18 03:47:41,0.08,0.49,0.00,25.65,27.99,30.78,13.70,45.14,1020.32,2024.07,3225.15,2948.08,3378.60,599.89,592.79,12.66,0000 0000 0000 0000 000000
2018-05-18 03:52:42,0.11,0.50,0.00,25.67,28.01,30.81,13.78,45.14,1020.41,2024.02,3222.94,2946.59,3376.91,600.10,592.92,12.71,0000 0000 0000 0000 000000
2018-05-18 03:57:43,0.13,0.50,0.00,25.71,28.04,30.84,13.75,45.11,1020.47,2024.00,3220.23,2944.71,3374.84,600.04,592.97,12.76,0000 0000 0000 0000 000000
2018-05-18 04:02:45,0.13,0.51,0.00,25.77,28.07,30.88,13.78,45.18,1020.47,2024.00,3217.27,2942.80,3372.65,599.96,592.60,12.81,0000 0000 0000 0000 000000
2018-05-18 04:07:46,0.08,0.51,0.00,25.82,28.11,30.91,13.77,45.23,1020.44,2023.99,3215.28,2941.47,3371.00,599.79,592.33,12.87,0000 0000 0000 0000 000000
2018-05-18 04:12:47,0.12,0.52,0.00,25.83,28.14,30.94,13.73,45.16,1020.47,2023.98,3212.83,2939.78,3369.07,599.91,592.57,12.92,0000 0000 0000 0000 000000
2018-05-18 04:17:48,0.10,0.53,0.00,25.85,28.16,30.97,13.72,45.13,1020.36,2023.93,3210.44,2938.13,3367.25,600.11,592.62,12.97,0000 0000 0000 0000 000000
2018-05-18 04:22:50,0.01,0.53,0.00,25.94,28.19,31.01,13.68,45.19,1020.31,2023.48,3208.94,2937.03,3366.01,599.89,592.19,13.02,0000 0000 0000 0000 000000
2018-05-18 04:27:51,0.05,0.53,0.00,25.97,28.23,31.04,13.68,45.09,1020.24,2023.28,3207.52,2936.11,3364.95,599.78,591.97,13.07,0000 0000 0000 0000 000000
2018-05-18 04:32:52,0.04,0.53,0.00,25.97,28.26,31.08,13.74,45.13,1020.23,2023.03,3206.40,2935.24,3363.97,600.18,592.39,13.12,0000 0000 0000 0000 000000
2018-05-18 04:37:53,0.06,0.53,0.00,26.01,28.29,31.11,13.77,45.05,1020.43,2023.00,3204.98,2934.24,3362.92,599.79,592.27,13.17,0000 0000 0000 0000 000000
2018-05-18 04:42:55,0.06,0.54,0.00,26.07,28.33,31.16,13.75,45.10,1020.49,2023.00,3203.68,2933.36,3361.85,600.06,592.35,13.22,0000 0000 0000 0000 000000
2018-05-18 04:47:56,0.08,0.54,0.00,26.08,28.36,31.18,13.83,45.13,1020.52,2022.97,3202.00,2932.23,3360.51,600.20,592.35,13.27,0000 0000 0000 0000 000000
2018-05-18 04:52:58,0.05,0.55,0.00,26.10,28.40,31.21,13.59,45.01,1020.51,2022.82,3200.32,2931.03,3359.16,599.55,591.68,13.32,0000 0000 0000 0000 000000
2018-05-18 04:57:59,0.05,0.55,0.00,26.16,28.43,31.25,13.64,45.02,1020.49,2022.53,3198.74,2929.92,3357.91,599.98,592.03,13.37,0000 0000 0000 0000 000000
2018-05-18 05:03:00,0.05,0.55,0.00,26.21,28.47,31.29,13.65,45.03,1020.47,2022.14,3196.99,2928.70,3356.45,600.02,591.90,13.42,0000 0000 0000 0000 000000
2018-05-18 05:08:02,0.03,0.55,0.00,26.22,28.50,31.32,13.75,44.99,1020.48,2022.02,3195.82,2927.94,3355.46,600.04,591.94,13.47,0000 0000 0000 0000 000000
2018-05-18 05:13:03,0.06,0.56,0.00,26.25,28.54,31.35,13.67,44.91,1020.51,2022.00,3194.59,2927.02,3354.53,599.98,591.65,13.52,0000 0000 0000 0000 000000
2018-05-18 05:18:04,0.06,0.56,0.00,26.30,28.58,31.38,13.77,45.02,1020.49,2022.00,3193.27,2925.98,3353.36,599.92,591.65,13.57,0000 0000 0000 0000 000000
2018-05-18 05:23:05,0.10,0.56,0.00,26.31,28.61,31.41,13.63,44.96,1020.38,2021.98,3191.36,2924.62,3351.88,599.74,591.35,13.62,0000 0000 0000 0000 000000
2018-05-18 05:28:07,0.08,0.57,0.00,26.31,28.65,31.45,13.71,45.03,1020.26,2021.75,3189.05,2922.96,3349.97,599.87,591.36,13.67,0000 0000 0000 0000 000000
2018-05-18 05:33:08,0.06,0.57,0.00,26.36,28.68,31.50,13.73,44.98,1020.06,2021.25,3186.83,2921.47,3348.28,600.04,591.36,13.72,0000 0000 0000 0000 000000
2018-05-18 05:38:09,0.07,0.57,0.00,26.40,28.71,31.51,13.67,44.96,1020.13,2021.06,3184.87,2920.12,3346.63,599.65,590.77,13.77,0000 0000 0000 0000 000000
2018-05-18 05:43:11,0.06,0.58,0.00,26.41,28.75,31.55,13.76,44.92,1020.43,2021.00,3183.25,2918.88,3345.37,600.39,591.85,13.82,0000 0000 0000 0000 000000
2018-05-18 05:48:12,0.05,0.58,0.00,26.43,28.78,31.61,13.77,45.02,1020.49,2021.00,3181.91,2917.98,3344.24,600.24,591.68,13.87,0000 0000 0000 0000 000000
2018-05-18 05:53:13,0.07,0.59,0.00,26.48,28.81,31.63,13.78,45.03,1020.49,2020.99,3180.64,2917.03,3343.30,600.15,591.45,13.92,0000 0000 0000 0000 000000
2018-05-18 05:58:14,0.05,0.59,0.00,26.49,28.85,31.66,13.74,45.05,1020.49,2020.99,3179.60,2916.16,3342.27,599.93,591.37,13.97,0000 0000 0000 0000 000000
2018-05-18 06:03:15,-0.01,0.59,0.00,26.52,28.88,31.70,13.78,45.11,1020.49,2020.80,3179.00,2915.92,3341.87,600.06,591.31,14.02,0000 0000 0000 0000 000000
2018-05-18 06:08:17,-0.00,0.59,0.00,26.56,28.91,31.73,13.77,45.02,1020.50,2020.21,3178.26,2915.11,3341.06,600.23,591.42,14.07,0000 0000 0000 0000 000000
2018-05-18 06:13:18,0.01,0.59,0.00,26.59,28.95,31.76,13.68,44.88,1020.51,2020.05,3177.84,2914.91,3340.65,599.88,590.91,14.12,0000 0000 0000 0000 000000
2018-05-18 06:18:19,0.03,0.59,0.00,26.58,28.98,31.79,13.78,45.04,1020.52,2020.01,3177.15,2914.19,3340.02,600.13,591.44,14.17,0000 0000 0000 0000 000000
2018-05-18 06:23:21,0.00,0.59,0.00,26.58,29.01,31.81,13.80,44.95,1020.51,2020.00,3176.99,2913.99,3339.85,600.27,591.44,14.22,0000 0000 0000 0000 000000
2018-05-18 06:28:22,0.04,0.59,0.00,26.64,29.04,31.84,13.75,44.92,1020.52,2020.00,3176.21,2913.49,3339.07,600.06,591.11,14.27,0000 0000 0000 0000 000000
2018-05-18 06:33:23,0.02,0.59,0.00,26.67,29.07,31.89,13.79,45.04,1020.51,2019.98,3175.88,2913.00,3338.63,600.10,590.98,14.32,0000 0000 0000 0000 000000
2018-05-18 06:38:25,0.02,0.60,0.00,26.67,29.10,31.91,13.65,44.89,1020.51,2019.94,3175.09,2912.70,3338.02,599.72,590.57,14.37,0000 0000 0000 0000 000000
2018-05-18 06:43:26,-0.01,0.60,0.00,26.69,29.13,31.94,13.79,45.00,1020.52,2019.59,3174.93,2912.10,3337.66,600.31,591.24,14.42,0000 0000 0000 0000 000000
2018-05-18 06:48:28,-0.01,0.60,0.00,26.73,29.16,31.97,13.72,44.95,1020.52,2019.21,3174.18,2912.00,3337.03,600.00,590.90,14.47,0000 0000 0000 0000 000000
2018-05-18 06:53:29,0.01,0.60,0.00,26.76,29.19,31.99,13.78,44.92,1020.52,2019.06,3173.97,2911.56,3336.80,600.17,590.99,14.52,0000 0000 0000 0000 000000
2018-05-18 06:58:30,0.03,0.60,0.00,26.76,29.21,32.02,13.82,45.08,1020.52,2019.00,3173.27,2911.01,3336.05,600.32,591.12,14.57,0000 0000 0000 0000 000000
2018-05-18 07:03:31,0.01,0.60,0.00,26.78,29.24,32.04,13.70,44.92,1020.52,2019.00,3172.99,2910.75,3335.92,599.99,590.73,14.62,0000 0000 0000 0000 000000
2018-05-18 07:08:33,0.04,0.60,0.00,26.82,29.27,32.07,13.67,44.94,1020.52,2018.99,3172.57,2910.06,3335.15,599.85,590.48,14.67,0000 0000 0000 0000 000000
2018-05-18 07:13:34,0.06,0.60,0.00,26.84,29.30,32.10,13.81,44.99,1020.52,2018.98,3171.23,2909.42,3334.29,600.22,590.89,14.72,0000 0000 0000 0000 000000
2018-05-18 07:18:35,0.05,0.61,0.00,26.84,29.32,32.11,13.70,44.91,1020.52,2018.91,3169.90,2908.17,3333.05,600.00,590.71,14.77,0000 0000 0000 0000 000000
2018-05-18 07:23:36,-0.03,0.61,0.00,26.84,29.35,32.15,13.66,44.99,1020.52,2018.44,3169.12,2907.99,3332.60,599.54,590.26,14.82,0000 0000 0000 0000 000000
2018-05-18 07:28:37,0.05,0.61,0.00,26.89,29.38,32.19,13.86,44.94,1020.53,2018.08,3168.11,2907.19,3331.72,600.67,591.07,14.87,0000 0000 0000 0000 000000
2018-05-18 07:33:39,0.06,0.61,0.00,26.90,29.40,32.20,13.69,44.88,1020.53,2018.01,3166.19,2906.10,3330.67,599.88,590.40,14.92,0000 0000 0000 0000 000000
2018-05-18 07:38:40,0.03,0.61,0.00,26.92,29.43,32.22,13.78,44.86,1020.54,2018.00,3165.60,2905.73,3330.00,600.17,590.72,14.97,0000 0000 0000 0000 000000
2018-05-18 07:43:41,0.02,0.61,0.00,26.91,29.45,32.24,13.78,45.02,1020.55,2018.00,3165.01,2905.06,3329.58,599.86,590.47,15.02,0000 0000 0000 0000 000000
2018-05-18 07:48:42,0.01,0.61,0.00,26.93,29.48,32.27,13.74,44.90,1020.55,2018.00,3164.55,2904.97,3329.02,599.73,590.33,15.07,0000 0000 0000 0000 000000
2018-05-18 07:53:44,0.04,0.62,0.00,26.97,29.50,32.29,13.80,44.92,1020.55,2017.98,3163.90,2904.23,3328.45,600.31,590.79,15.12,0000 0000 0000 0000 000000
2018-05-18 07:58:44,0.01,0.62,0.00,26.97,29.52,32.32,13.75,44.87,1020.58,2017.95,3163.08,2904.00,3328.00,600.06,590.58,15.18,0000 0000 0000 0000 000000
2018-05-18 08:03:46,0.02,0.62,0.00,26.95,29.55,32.34,13.69,44.92,1020.56,2017.87,3162.86,2903.67,3327.65,599.98,590.45,15.23,0000 0000 0000 0000 000000
2018-05-18 08:08:47,0.00,0.62,0.00,26.98,29.57,32.36,13.69,44.82,1020.63,2017.62,3162.08,2903.04,3327.03,599.95,590.45,15.28,0000 0000 0000 0000 000000
2018-05-18 08:13:49,-0.03,0.62,0.00,26.99,29.59,32.39,13.72,44.93,1020.74,2017.21,3161.98,2902.98,3326.98,599.95,590.54,15.33,0000 0000 0000 0000 000000
2018-05-18 08:18:50,0.03,0.62,0.00,27.01,29.61,32.40,13.75,44.87,1020.83,2017.09,3161.51,2902.60,3326.47,600.25,590.65,15.38,0000 0000 0000 0000 000000
2018-05-18 08:23:51,0.01,0.62,0.00,27.01,29.63,32.43,13.78,44.86,1020.80,2017.01,3161.01,2902.01,3326.01,600.31,590.80,15.43,0000 0000 0000 0000 000000
2018-05-18 08:28:52,0.02,0.62,0.00,27.00,29.65,32.44,13.61,44.88,1020.77,2017.00,3160.48,2901.96,3325.57,599.73,590.22,15.48,0000 0000 0000 0000 000000
2018-05-18 08:33:53,0.03,0.62,0.00,27.03,29.67,32.47,13.72,44.82,1020.85,2017.00,3160.01,2901.37,3325.03,599.98,590.53,15.53,0000 0000 0000 0000 000000
2018-05-18 08:38:54,0.02,0.62,0.00,27.05,29.69,32.48,13.69,44.86,1020.83,2017.00,3159.53,2901.00,3324.70,599.86,590.35,15.58,0000 0000 0000 0000 000000
2018-05-18 08:43:56,0.01,0.62,0.00,27.04,29.71,32.49,13.67,44.87,1020.72,2016.98,3159.02,2900.95,3324.08,600.01,590.39,15.63,0000 0000 0000 0000 000000
2018-05-18 08:48:57,0.01,0.62,0.00,27.03,29.72,32.51,13.78,44.88,1020.70,2016.98,3158.97,2900.61,3324.01,600.16,590.55,15.68,0000 0000 0000 0000 000000
2018-05-18 08:53:58,0.02,0.63,0.00,27.05,29.74,32.52,13.73,44.84,1020.71,2016.98,3158.47,2900.08,3323.92,600.10,590.55,15.73,0000 0000 0000 0000 000000
2018-05-18 08:59:00,0.01,0.63,0.00,27.08,29.75,32.55,13.73,44.88,1020.58,2016.95,3158.01,2900.00,3323.16,599.92,590.07,15.78,0000 0000 0000 0000 000000
2018-05-18 09:04:01,-0.00,0.63,0.00,27.08,29.77,32.55,13.71,44.88,1020.57,2016.84,3157.90,2899.92,3323.00,599.99,590.17,15.83,0000 0000 0000 0000 000000
2018-05-18 09:09:02,0.01,0.63,0.00,27.09,29.77,32.56,13.66,44.86,1020.70,2016.60,3157.21,2899.24,3322.81,599.75,589.99,15.88,0000 0000 0000 0000 000000
2018-05-18 09:14:04,-0.01,0.63,0.00,27.06,29.80,32.59,13.76,44.84,1020.94,2016.31,3157.00,2899.00,3322.13,599.92,590.23,15.93,0000 0000 0000 0000 000000
2018-05-18 09:19:05,-0.01,0.63,0.00,27.09,29.80,32.61,13.74,44.81,1020.96,2016.12,3156.87,2898.99,3322.00,600.04,590.54,15.98,0000 0000 0000 0000 000000
2018-05-18 09:24:06,0.01,0.63,0.00,27.11,29.82,32.63,13.65,44.81,1020.87,2016.06,3156.18,2898.85,3321.95,599.80,590.12,16.03,0000 0000 0000 0000 000000
2018-05-18 09:29:07,0.03,0.63,0.00,27.10,29.83,32.62,13.73,44.90,1020.70,2016.02,3156.00,2898.19,3321.28,600.24,590.44,16.08,0000 0000 0000 0000 000000
2018-05-18 09:34:08,0.01,0.63,0.00,27.08,29.85,32.64,13.80,44.91,1020.62,2016.01,3155.89,2898.01,3321.02,600.08,590.31,16.13,0000 0000 0000 0000 000000
2018-05-18 09:39:09,0.01,0.63,0.00,27.07,29.85,32.66,13.75,44.89,1020.62,2016.00,3155.20,2897.97,3320.92,600.14,590.41,16.18,0000 0000 0000 0000 000000
2018-05-18 09:44:11,0.05,0.63,0.00,27.11,29.87,32.66,13.77,44.88,1020.67,2016.00,3154.55,2897.23,3320.13,600.01,590.23,16.23,0000 0000 0000 0000 000000
2018-05-18 09:49:12,0.00,0.63,0.00,27.10,29.87,32.66,13.69,44.85,1020.75,2016.00,3153.95,2896.98,3319.80,599.80,590.00,16.28,0000 0000 0000 0000 000000
2018-05-18 09:54:13,0.05,0.64,0.00,27.09,29.89,32.68,13.61,44.83,1020.84,2016.00,3153.13,2896.30,3319.07,599.64,590.01,16.33,0000 0000 0000 0000 000000
2018-05-18 09:59:15,0.02,0.64,0.00,27.05,29.90,32.71,13.74,44.88,1020.80,2016.00,3152.57,2895.99,3318.51,600.06,590.34,16.38,0000 0000 0000 0000 000000
2018-05-18 10:04:16,0.01,0.64,0.00,27.06,29.91,32.70,13.76,44.82,1020.88,2016.00,3152.03,2895.78,3318.03,600.01,590.52,16.43,0000 0000 0000 0000 000000
2018-05-18 10:09:17,0.01,0.64,0.00,27.09,29.92,32.69,13.74,44.84,1020.95,2016.00,3151.92,2895.18,3317.98,600.29,590.67,16.48,0000 0000 0000 0000 000000
2018-05-18 10:14:19,0.03,0.64,0.00,27.04,29.92,32.70,13.81,44.85,1020.94,2015.99,3151.08,2895.00,3317.24,600.30,590.87,16.53,0000 0000 0000 0000 000000
2018-05-18 10:19:20,0.00,0.64,0.00,27.03,29.93,32.70,13.74,44.90,1020.97,2015.98,3150.96,2894.96,3317.00,600.05,590.56,16.58,0000 0000 0000 0000 000000
2018-05-18 10:24:21,0.01,0.64,0.00,27.03,29.95,32.71,13.65,44.73,1020.97,2015.97,3150.74,2894.90,3317.00,599.98,590.52,16.63,0000 0000 0000 0000 000000
2018-05-18 10:29:22,0.02,0.64,0.00,27.03,29.95,32.71,13.74,44.81,1021.00,2015.99,3150.14,2894.44,3316.98,600.09,590.61,16.68,0000 0000 0000 0000 000000
2018-05-18 10:34:23,0.01,0.64,0.00,27.03,29.95,32.71,13.70,44.78,1021.00,2015.96,3150.01,2894.05,3316.68,599.77,590.34,16.73,0000 0000 0000 0000 000000
2018-05-18 10:39:24,0.01,0.64,0.00,26.99,29.95,32.70,13.63,44.75,1020.90,2015.96,3150.00,2894.00,3316.18,600.00,590.50,16.78,0000 0000 0000 0000 000000
2018-05-18 10:44:26,0.00,0.64,0.00,26.98,29.95,32.71,13.76,44.81,1020.58,2015.95,3149.93,2894.00,3316.02,599.93,590.36,16.83,0000 0000 0000 0000 000000
2018-05-18 10:49:27,0.01,0.64,0.00,27.00,29.96,32.72,13.77,44.82,1020.55,2015.96,3149.45,2893.99,3316.00,600.21,590.57,16.88,0000 0000 0000 0000 000000
2018-05-18 10:54:28,0.00,0.64,0.00,27.00,29.97,32.73,13.77,44.72,1020.57,2015.97,3149.06,2893.97,3316.00,600.41,590.81,16.93,0000 0000 0000 0000 000000
2018-05-18 10:59:30,0.01,0.64,0.00,26.98,29.97,32.72,13.77,44.79,1020.58,2015.94,3149.00,2893.64,3315.89,600.06,590.38,16.98,0000 0000 0000 0000 000000
2018-05-18 11:04:31,0.02,0.65,0.00,27.00,29.97,32.72,13.72,44.74,1020.57,2015.88,3148.92,2893.06,3315.15,599.95,590.26,17.03,0000 0000 0000 0000 000000
2018-05-18 11:09:32,0.01,0.65,0.00,26.98,29.97,32.71,13.71,44.83,1020.55,2015.89,3148.36,2893.01,3315.01,599.79,590.16,17.08,0000 0000 0000 0000 000000
2018-05-18 11:14:34,-0.01,0.65,0.00,26.96,29.97,32.71,13.80,44.79,1020.56,2015.82,3148.02,2893.00,3315.00,600.10,590.46,17.13,0000 0000 0000 0000 000000
2018-05-18 11:19:35,0.01,0.65,0.00,26.94,29.97,32.70,13.73,44.80,1020.59,2015.88,3148.00,2892.98,3314.98,599.86,590.43,17.18,0000 0000 0000 0000 000000
2018-05-18 11:24:36,0.01,0.65,0.00,26.92,29.97,32.71,13.72,44.77,1020.57,2015.92,3147.96,2892.93,3314.67,599.79,590.34,17.23,0000 0000 0000 0000 000000
2018-05-18 11:29:37,0.01,0.65,0.00,26.93,29.97,32.72,13.68,44.74,1020.56,2015.71,3147.33,2892.37,3314.09,599.64,590.22,17.28,0000 0000 0000 0000 000000
2018-05-18 11:34:39,0.01,0.65,0.00,26.94,29.97,32.70,13.72,44.73,1020.56,2015.65,3147.02,2892.04,3314.00,600.10,590.63,17.33,0000 0000 0000 0000 000000
2018-05-18 11:39:40,0.00,0.65,0.00,26.94,29.97,32.69,13.74,44.74,1020.58,2015.56,3147.00,2892.00,3313.99,600.04,590.62,17.38,0000 0000 0000 0000 000000
2018-05-18 11:44:41,0.02,0.65,0.00,26.95,29.96,32.69,13.69,44.76,1020.61,2015.73,3146.94,2892.00,3313.95,600.24,590.72,17.43,0000 0000 0000 0000 000000
2018-05-18 11:49:42,0.05,0.65,0.00,26.92,29.95,32.69,13.67,44.77,1020.58,2015.74,3145.87,2891.41,3313.14,599.63,590.22,17.48,0000 0000 0000 0000 000000
2018-05-18 11:54:44,0.03,0.65,0.00,26.89,29.95,32.68,13.73,44.74,1020.59,2015.73,3144.87,2890.79,3312.27,599.88,590.53,17.53,0000 0000 0000 0000 000000
2018-05-18 11:59:45,0.09,0.66,0.00,26.92,29.95,32.68,13.73,44.82,1020.59,2015.77,3143.62,2889.83,3311.43,599.79,590.28,17.58,0000 0000 0000 0000 000000
2018-05-18 12:04:46,0.10,0.66,0.00,26.91,29.95,32.67,13.76,44.77,1020.61,2015.80,3141.55,2888.55,3309.82,599.95,590.54,17.63,0000 0000 0000 0000 000000
2018-05-18 12:09:48,0.08,0.67,0.00,26.86,29.95,32.67,13.75,44.63,1020.55,2015.76,3139.61,2887.13,3308.23,600.42,591.18,17.68,0000 0000 0000 0000 000000
2018-05-18 12:14:49,0.03,0.67,0.00,26.85,29.94,32.65,13.78,44.75,1020.55,2015.78,3138.68,2886.64,3307.70,599.80,590.40,17.73,0000 0000 0000 0000 000000
2018-05-18 12:19:50,0.15,0.67,0.00,26.87,29.92,32.66,13.76,44.70,1020.56,2015.77,3136.17,2884.83,3305.67,599.78,590.40,17.78,0000 0000 0000 0000 000000
2018-05-18 12:24:52,0.21,0.68,0.00,26.83,29.92,32.66,13.76,44.74,1020.58,2015.77,3132.22,2882.06,3302.59,599.99,590.65,17.83,0000 0000 0000 0000 000000
2018-05-18 12:29:53,0.17,0.69,0.00,26.78,29.92,32.64,13.66,44.69,1020.62,2015.89,3128.57,2879.52,3299.71,599.75,590.44,17.88,0000 0000 0000 0000 000000
2018-05-18 12:34:54,0.01,0.70,0.00,26.78,29.90,32.63,13.65,44.74,1020.57,2015.85,3127.20,2879.00,3299.00,600.08,590.94,17.93,0000 0000 0000 0000 000000
2018-05-18 12:39:55,0.01,0.70,0.00,26.78,29.90,32.63,13.67,44.73,1020.55,2015.94,3127.00,2878.96,3298.88,599.72,590.52,17.98,0000 0000 0000 0000 000000
2018-05-18 12:44:57,0.02,0.70,0.00,26.76,29.90,32.62,13.76,44.71,1020.53,2015.95,3126.77,2878.71,3298.25,600.01,590.84,18.03,0000 0000 0000 0000 000000
2018-05-18 12:49:58,0.03,0.70,0.00,26.73,29.88,32.61,13.78,44.83,1020.53,2015.98,3126.16,2878.25,3298.05,600.14,590.93,18.08,0000 0000 0000 0000 000000
2018-05-18 12:54:59,0.00,0.70,0.00,26.76,29.87,32.61,13.81,44.72,1020.53,2015.99,3126.00,2878.02,3298.00,600.13,591.02,18.13,0000 0000 0000 0000 000000